• In Deutschland
  • Länderverzeichnis
  • Für 7 Tage
  • Wassertemperatur
  • Satellitenkarten
  • Wetterkarte
  • Widgets
  • user-avatar
    Anmelden

    Stündliche Wetter Innsbruck

    Heute, 24 August, Donnerstag

    Zeit Temperatur Niederschläge Wind Luftdruck Luftfeuchtigkeit
    00:00 +7°C° 0 mm 1 m/S 599 mmHg 75%
    01:00 +7°C° 0 mm 1 m/S 599 mmHg 73%
    02:00 +7°C° 0 mm 1 m/S 599 mmHg 72%
    03:00 +7°C° 0 mm 1 m/S 599 mmHg 72%
    04:00 +7°C° 0 mm 1 m/S 599 mmHg 71%
    05:00 +8°C° 0 mm 1 m/S 599 mmHg 69%
    06:00 +10°C° 0 mm 1 m/S 600 mmHg 66%
    07:00 +11°C° 0 mm 1 m/S 601 mmHg 64%
    08:00 +14°C° 0 mm 1 m/S 602 mmHg 56%
    09:00 +18°C° 0 mm 1 m/S 603 mmHg 47%
    10:00 +18°C° 0 mm 0 m/S 604 mmHg 39%
    11:00 +21°C° 0 mm 1 m/S 604 mmHg 37%
    12:00 +21°C° 0 mm 1 m/S 605 mmHg 36%
    13:00 +22°C° 0 mm 1 m/S 605 mmHg 34%
    14:00 +21°C° 0,1 mm 1 m/S 604 mmHg 39%
    15:00 +21°C° 0,1 mm 1 m/S 604 mmHg 43%
    16:00 +20°C° 0,1 mm 1 m/S 604 mmHg 48%
    17:00 +18°C° 1 mm 1 m/S 603 mmHg 58%
    18:00 +14°C° 1 mm 1 m/S 602 mmHg 69%
    19:00 +11°C° 1 mm 0 m/S 601 mmHg 80%
    20:00 +12°C° 0,2 mm 1 m/S 601 mmHg 81%
    21:00 +11°C° 0,2 mm 1 m/S 601 mmHg 81%
    22:00 +9°C° 0,2 mm 2 m/S 601 mmHg 82%
    23:00 +9°C° 0 mm 2 m/S 601 mmHg 82%

    Morgen, 25 August, Freitag

    Zeit Temperatur Niederschläge Wind Luftdruck Luftfeuchtigkeit
    00:00 +9°C° 0 mm 2 m/S 601 mmHg 83%
    01:00 +9°C° 0 mm 2 m/S 601 mmHg 83%
    02:00 +8°C° 0 mm 2 m/S 601 mmHg 83%
    03:00 +9°C° 0 mm 1 m/S 600 mmHg 82%
    04:00 +9°C° 0 mm 1 m/S 600 mmHg 82%
    05:00 +10°C° 0 mm 1 m/S 601 mmHg 80%
    06:00 +11°C° 0 mm 1 m/S 601 mmHg 77%
    07:00 +12°C° 0 mm 1 m/S 602 mmHg 74%
    08:00 +14°C° 0 mm 1 m/S 603 mmHg 65%
    09:00 +16°C° 0 mm 1 m/S 604 mmHg 56%
    10:00 +18°C° 0 mm 0 m/S 605 mmHg 47%
    11:00 +21°C° 0,1 mm 1 m/S 605 mmHg 45%
    12:00 +21°C° 0,1 mm 1 m/S 605 mmHg 43%
    13:00 +22°C° 0,1 mm 1 m/S 605 mmHg 40%
    14:00 +22°C° 0,2 mm 1 m/S 604 mmHg 43%
    15:00 +21°C° 0,2 mm 1 m/S 604 mmHg 45%
    16:00 +21°C° 0,2 mm 1 m/S 604 mmHg 48%
    17:00 +18°C° 0,7 mm 1 m/S 603 mmHg 60%
    18:00 +15°C° 0,7 mm 1 m/S 602 mmHg 71%
    19:00 +12°C° 0,7 mm 0 m/S 601 mmHg 83%
    20:00 +13°C° 0,4 mm 1 m/S 601 mmHg 83%
    21:00 +12°C° 0,4 mm 1 m/S 601 mmHg 83%
    22:00 +12°C° 0,4 mm 1 m/S 601 mmHg 83%
    23:00 +11°C° 0 mm 1 m/S 601 mmHg 83%

    übermorgen, 26 August, Samstag

    Zeit Temperatur Niederschläge Wind Luftdruck Luftfeuchtigkeit
    00:00 +11°C° 0 mm 1 m/S 601 mmHg 82%
    01:00 +10°C° 0 mm 1 m/S 601 mmHg 82%
    02:00 +10°C° 0 mm 1 m/S 600 mmHg 80%
    03:00 +10°C° 0 mm 1 m/S 600 mmHg 79%
    04:00 +10°C° 0 mm 1 m/S 600 mmHg 78%
    05:00 +11°C° 0 mm 1 m/S 601 mmHg 75%
    06:00 +12°C° 0 mm 1 m/S 601 mmHg 72%
    07:00 +13°C° 0 mm 1 m/S 602 mmHg 69%
    08:00 +15°C° 0,1 mm 1 m/S 603 mmHg 61%
    09:00 +18°C° 0,1 mm 1 m/S 603 mmHg 54%
    10:00 +18°C° 0,1 mm 0 m/S 604 mmHg 46%
    11:00 +21°C° 0,1 mm 1 m/S 604 mmHg 44%
    12:00 +22°C° 0,1 mm 1 m/S 605 mmHg 41%
    13:00 +23°C° 0,1 mm 1 m/S 605 mmHg 39%
    14:00 +22°C° 0,2 mm 1 m/S 604 mmHg 41%
    15:00 +22°C° 0,2 mm 1 m/S 604 mmHg 44%
    16:00 +21°C° 0,2 mm 1 m/S 604 mmHg 46%
    17:00 +19°C° 0,6 mm 1 m/S 603 mmHg 56%
    18:00 +16°C° 0,6 mm 1 m/S 602 mmHg 66%
    19:00 +13°C° 0,6 mm 0 m/S 601 mmHg 76%
    20:00 +14°C° 0,4 mm 1 m/S 601 mmHg 77%
    21:00 +13°C° 0,4 mm 1 m/S 601 mmHg 77%
    22:00 +13°C° 0,4 mm 1 m/S 601 mmHg 77%
    23:00 +12°C° 0 mm 1 m/S 601 mmHg 77%

    27 August, Sonntag

    Zeit Temperatur Niederschläge Wind Luftdruck Luftfeuchtigkeit
    00:00 +11°C° 0 mm 1 m/S 601 mmHg 77%
    01:00 +10°C° 0 mm 2 m/S 600 mmHg 76%
    02:00 +11°C° 0 mm 1 m/S 600 mmHg 76%
    03:00 +10°C° 0 mm 1 m/S 600 mmHg 76%
    04:00 +10°C° 0 mm 1 m/S 600 mmHg 76%
    05:00 +11°C° 0 mm 1 m/S 600 mmHg 73%
    06:00 +12°C° 0 mm 1 m/S 601 mmHg 71%
    07:00 +13°C° 0 mm 1 m/S 601 mmHg 68%
    08:00 +16°C° 0 mm 1 m/S 602 mmHg 59%
    09:00 +19°C° 0 mm 1 m/S 603 mmHg 50%
    10:00 +20°C° 0 mm 0 m/S 604 mmHg 42%
    11:00 +22°C° 0,1 mm 1 m/S 604 mmHg 40%
    12:00 +23°C° 0,1 mm 1 m/S 604 mmHg 38%
    13:00 +24°C° 0,1 mm 1 m/S 604 mmHg 36%
    14:00 +23°C° 0 mm 1 m/S 604 mmHg 39%
    15:00 +22°C° 0 mm 1 m/S 604 mmHg 41%
    16:00 +22°C° 0 mm 1 m/S 603 mmHg 44%
    17:00 +20°C° 1,4 mm 1 m/S 602 mmHg 56%
    18:00 +16°C° 1,4 mm 1 m/S 602 mmHg 68%
    19:00 +14°C° 1,4 mm 1 m/S 601 mmHg 80%
    20:00 +13°C° 1,2 mm 1 m/S 601 mmHg 82%
    21:00 +13°C° 1,2 mm 1 m/S 601 mmHg 84%
    22:00 +12°C° 1,2 mm 1 m/S 601 mmHg 87%
    23:00 +12°C° 0,1 mm 1 m/S 601 mmHg 87%

    28 August, Montag

    Zeit Temperatur Niederschläge Wind Luftdruck Luftfeuchtigkeit
    00:00 +11°C° 0,1 mm 1 m/S 600 mmHg 87%
    01:00 +10°C° 0,1 mm 1 m/S 600 mmHg 87%
    02:00 +10°C° 0,1 mm 1 m/S 600 mmHg 87%
    03:00 +10°C° 0,1 mm 1 m/S 600 mmHg 86%
    04:00 +9°C° 0,1 mm 1 m/S 600 mmHg 85%
    05:00 +10°C° 0 mm 1 m/S 600 mmHg 83%
    06:00 +11°C° 0 mm 1 m/S 601 mmHg 81%
    07:00 +12°C° 0 mm 1 m/S 602 mmHg 79%
    08:00 +14°C° 0 mm 1 m/S 602 mmHg 69%
    09:00 +18°C° 0 mm 1 m/S 603 mmHg 60%
    10:00 +20°C° 0 mm 1 m/S 604 mmHg 50%
    11:00 +21°C° 0 mm 1 m/S 604 mmHg 47%
    12:00 +20°C° 0 mm 2 m/S 605 mmHg 44%
    13:00 +21°C° 0 mm 2 m/S 605 mmHg 41%
    14:00 +21°C° 0 mm 2 m/S 604 mmHg 43%
    15:00 +20°C° 0 mm 2 m/S 604 mmHg 45%
    16:00 +20°C° 0 mm 2 m/S 604 mmHg 47%
    17:00 +18°C° 0 mm 2 m/S 603 mmHg 59%
    18:00 +15°C° 0 mm 1 m/S 602 mmHg 70%
    19:00 +13°C° 0 mm 1 m/S 602 mmHg 82%
    20:00 +12°C° 0 mm 1 m/S 601 mmHg 85%
    21:00 +11°C° 0 mm 1 m/S 601 mmHg 88%
    22:00 +10°C° 0 mm 1 m/S 601 mmHg 91%
    23:00 +10°C° 0 mm 1 m/S 601 mmHg 91%

    29 August, Dienstag

    Zeit Temperatur Niederschläge Wind Luftdruck Luftfeuchtigkeit
    00:00 +9°C° 0 mm 1 m/S 601 mmHg 90%
    01:00 +9°C° 0 mm 1 m/S 600 mmHg 90%
    02:00 +9°C° 0 mm 1 m/S 600 mmHg 89%
    03:00 +9°C° 0 mm 1 m/S 600 mmHg 88%
    04:00 +8°C° 0 mm 1 m/S 600 mmHg 87%
    05:00 +10°C° 0 mm 1 m/S 601 mmHg 83%
    06:00 +11°C° 0 mm 1 m/S 601 mmHg 79%
    07:00 +12°C° 0 mm 1 m/S 602 mmHg 76%
    08:00 +15°C° 0 mm 1 m/S 603 mmHg 65%
    09:00 +18°C° 0 mm 1 m/S 604 mmHg 54%
    10:00 +21°C° 0 mm 1 m/S 605 mmHg 43%
    11:00 +22°C° 0 mm 1 m/S 605 mmHg 41%
    12:00 +22°C° 0 mm 1 m/S 605 mmHg 38%
    13:00 +23°C° 0 mm 1 m/S 605 mmHg 35%
    14:00 +23°C° 0 mm 1 m/S 605 mmHg 38%
    15:00 +23°C° 0 mm 1 m/S 604 mmHg 40%
    16:00 +22°C° 0 mm 1 m/S 604 mmHg 43%
    17:00 +20°C° 0 mm 1 m/S 603 mmHg 56%
    18:00 +16°C° 0 mm 1 m/S 602 mmHg 69%
    19:00 +13°C° 0 mm 1 m/S 600 mmHg 82%
    20:00 +13°C° 0 mm 1 m/S 601 mmHg 83%
    21:00 +13°C° 0 mm 1 m/S 601 mmHg 83%
    22:00 +12°C° 0 mm 2 m/S 601 mmHg 84%
    23:00 +12°C° 0 mm 2 m/S 600 mmHg 84%
    Mehr zeigen